SKW4288 KSAN-KLAX

Flight info

Callsign SKW4288
Flight time 0h 29m
Altitude 10000
Route CWARD2 SLI
Aircraft CRJ9/M-SDFGIRWY/S

Departure

Time 2026-04-25 04:32
Airport San Diego International Airport (KSAN)

Arrival

Time 2026-04-25 05:02
Airport Los Angeles International Airport (KLAX)
Time Latitude Longitude Altitude Speed Heading
2026-04-25 03:58 32.73333 -117.19649 22 ft 0 kts 171°
2026-04-25 04:17 32.73356 -117.19653 25 ft 4 kts 173°
2026-04-25 04:18 32.73379 -117.19660 24 ft 4 kts 139°
2026-04-25 04:18 32.73383 -117.19669 24 ft 1 kts 100°
2026-04-25 04:25 32.73382 -117.19660 25 ft 2 kts 96°
2026-04-25 04:25 32.73385 -117.19632 24 ft 5 kts 81°
2026-04-25 04:25 32.73391 -117.19587 28 ft 6 kts 82°
2026-04-25 04:26 32.73389 -117.19536 27 ft 7 kts 101°
2026-04-25 04:26 32.73373 -117.19464 26 ft 11 kts 105°
2026-04-25 04:26 32.73349 -117.19364 23 ft 15 kts 106°
2026-04-25 04:26 32.73317 -117.19232 24 ft 18 kts 106°
2026-04-25 04:27 32.73282 -117.19087 25 ft 18 kts 102°
2026-04-25 04:27 32.73275 -117.19062 24 ft 0 kts 107°
2026-04-25 04:28 32.73260 -117.18999 24 ft 16 kts 105°
2026-04-25 04:28 32.73219 -117.18823 26 ft 25 kts 105°
2026-04-25 04:28 32.73169 -117.18618 33 ft 27 kts 106°
2026-04-25 04:29 32.73114 -117.18397 31 ft 28 kts 106°
2026-04-25 04:29 32.73061 -117.18180 28 ft 26 kts 106°
2026-04-25 04:29 32.73015 -117.17994 29 ft 21 kts 106°
2026-04-25 04:29 32.72978 -117.17847 25 ft 17 kts 106°
2026-04-25 04:30 32.72954 -117.17733 25 ft 11 kts 93°
2026-04-25 04:30 32.72954 -117.17710 25 ft 0 kts 87°
2026-04-25 04:31 32.72954 -117.17708 25 ft 2 kts 87°
2026-04-25 04:31 32.72984 -117.17635 27 ft 14 kts 27°
2026-04-25 04:31 32.73040 -117.17662 27 ft 6 kts 285°
2026-04-25 04:32 32.73048 -117.17702 27 ft 18 kts 287°
2026-04-25 04:32 32.73163 -117.18174 29 ft 99 kts 285°
2026-04-25 04:32 32.73395 -117.19228 52 ft 159 kts 282°
2026-04-25 04:32 32.73746 -117.20520 757 ft 162 kts 289°
2026-04-25 04:33 32.74136 -117.21739 1683 ft 157 kts 290°
2026-04-25 04:33 32.74515 -117.22962 2303 ft 159 kts 289°
2026-04-25 04:33 32.75063 -117.24112 2732 ft 173 kts 317°
2026-04-25 04:33 32.76061 -117.25117 3088 ft 198 kts 314°
2026-04-25 04:34 32.76996 -117.26382 3788 ft 210 kts 306°
2026-04-25 04:34 32.77846 -117.27822 4667 ft 214 kts 301°
2026-04-25 04:34 32.78649 -117.29315 5581 ft 216 kts 300°
2026-04-25 04:34 32.79448 -117.30842 6483 ft 219 kts 300°
2026-04-25 04:35 32.80285 -117.32362 7350 ft 221 kts 302°
2026-04-25 04:35 32.81200 -117.33857 8106 ft 231 kts 304°
2026-04-25 04:35 32.82219 -117.35415 8708 ft 246 kts 304°
2026-04-25 04:35 32.83285 -117.37040 9432 ft 255 kts 304°
2026-04-25 04:36 32.84377 -117.38726 9770 ft 260 kts 304°
2026-04-25 04:36 32.85482 -117.40450 9897 ft 262 kts 303°
2026-04-25 04:36 32.86575 -117.42159 9949 ft 263 kts 304°
2026-04-25 04:36 32.87681 -117.43879 9959 ft 259 kts 303°
2026-04-25 04:37 32.88776 -117.45560 9952 ft 255 kts 304°
2026-04-25 04:37 32.89849 -117.47218 9956 ft 251 kts 303°
2026-04-25 04:37 32.90901 -117.48859 9948 ft 248 kts 303°
2026-04-25 04:37 32.91944 -117.50486 9948 ft 247 kts 303°
2026-04-25 04:38 32.92983 -117.52104 9955 ft 245 kts 303°
2026-04-25 04:38 32.94017 -117.53717 9954 ft 245 kts 303°
2026-04-25 04:38 32.95052 -117.55326 9955 ft 244 kts 303°
2026-04-25 04:38 32.96081 -117.56930 9957 ft 243 kts 303°
2026-04-25 04:39 32.97106 -117.58532 9961 ft 243 kts 303°
2026-04-25 04:39 32.98132 -117.60126 9961 ft 242 kts 303°
2026-04-25 04:39 32.99152 -117.61723 9960 ft 242 kts 303°
2026-04-25 04:39 33.00174 -117.63316 9961 ft 242 kts 303°
2026-04-25 04:40 33.01198 -117.64918 9961 ft 245 kts 303°
2026-04-25 04:40 33.02243 -117.66555 9964 ft 251 kts 303°
2026-04-25 04:40 33.03315 -117.68226 9967 ft 257 kts 303°
2026-04-25 04:40 33.04407 -117.69936 9972 ft 262 kts 303°
2026-04-25 04:41 33.05521 -117.71683 9980 ft 266 kts 303°
2026-04-25 04:41 33.06689 -117.73407 9972 ft 270 kts 310°
2026-04-25 04:41 33.08088 -117.74925 9964 ft 274 kts 316°
2026-04-25 04:41 33.09565 -117.76350 9961 ft 272 kts 317°
2026-04-25 04:42 33.11037 -117.77751 9960 ft 270 kts 317°
2026-04-25 04:42 33.12493 -117.79150 9955 ft 267 kts 316°
2026-04-25 04:42 33.13913 -117.80568 9945 ft 265 kts 315°
2026-04-25 04:42 33.15294 -117.81979 9947 ft 263 kts 315°
2026-04-25 04:43 33.16681 -117.83392 9946 ft 262 kts 315°
2026-04-25 04:43 33.18065 -117.84798 9948 ft 261 kts 315°
2026-04-25 04:43 33.19517 -117.86097 9940 ft 265 kts 330°
2026-04-25 04:43 33.21274 -117.86795 9951 ft 268 kts 341°
2026-04-25 04:44 33.23105 -117.87244 9947 ft 269 kts 345°
2026-04-25 04:44 33.24947 -117.87618 9941 ft 268 kts 345°
2026-04-25 04:44 33.26783 -117.88006 9944 ft 267 kts 344°
2026-04-25 04:44 33.28604 -117.88446 9938 ft 266 kts 343°
2026-04-25 04:45 33.30415 -117.88909 9945 ft 266 kts 343°
2026-04-25 04:45 33.32225 -117.89362 9946 ft 265 kts 343°
2026-04-25 04:45 33.34032 -117.89813 9941 ft 265 kts 343°
2026-04-25 04:45 33.35828 -117.90259 9938 ft 261 kts 343°
2026-04-25 04:46 33.37586 -117.90696 9934 ft 254 kts 343°
2026-04-25 04:46 33.39292 -117.91158 9932 ft 248 kts 339°
2026-04-25 04:46 33.40932 -117.91752 9929 ft 243 kts 336°
2026-04-25 04:46 33.42536 -117.92388 9839 ft 244 kts 336°
2026-04-25 04:47 33.44157 -117.93031 9658 ft 246 kts 337°
2026-04-25 04:47 33.45798 -117.93649 9477 ft 247 kts 338°
2026-04-25 04:47 33.47431 -117.94244 9292 ft 241 kts 338°
2026-04-25 04:47 33.49009 -117.94814 9096 ft 233 kts 338°
2026-04-25 04:48 33.50535 -117.95366 8896 ft 226 kts 338°
2026-04-25 04:48 33.52000 -117.95897 8697 ft 219 kts 338°
2026-04-25 04:48 33.53442 -117.96423 8496 ft 214 kts 338°
2026-04-25 04:48 33.54916 -117.96967 8326 ft 228 kts 339°
2026-04-25 04:49 33.56462 -117.97529 8168 ft 234 kts 339°
2026-04-25 04:49 33.58019 -117.98096 8011 ft 234 kts 339°
2026-04-25 04:49 33.59566 -117.98661 7845 ft 232 kts 339°
2026-04-25 04:49 33.61102 -117.99225 7675 ft 230 kts 339°
2026-04-25 04:50 33.62629 -117.99784 7505 ft 229 kts 340°
2026-04-25 04:50 33.64157 -118.00308 7333 ft 228 kts 341°
2026-04-25 04:50 33.65660 -118.00812 7190 ft 221 kts 341°
2026-04-25 04:50 33.67125 -118.01297 7061 ft 215 kts 341°
2026-04-25 04:51 33.68538 -118.01761 6995 ft 206 kts 341°
2026-04-25 04:51 33.69906 -118.02206 6960 ft 205 kts 341°
2026-04-25 04:51 33.71303 -118.02664 6954 ft 211 kts 341°
2026-04-25 04:51 33.72731 -118.03135 6958 ft 215 kts 341°
2026-04-25 04:52 33.74183 -118.03615 6961 ft 218 kts 341°
2026-04-25 04:52 33.75647 -118.04103 6941 ft 218 kts 341°
2026-04-25 04:52 33.77102 -118.04584 6935 ft 216 kts 341°
2026-04-25 04:52 33.78538 -118.05060 6929 ft 212 kts 341°
2026-04-25 04:53 33.79947 -118.05527 6922 ft 208 kts 341°
2026-04-25 04:53 33.81328 -118.05986 6912 ft 204 kts 338°
2026-04-25 04:53 33.82623 -118.06598 6945 ft 194 kts 333°
2026-04-25 04:53 33.83830 -118.07240 6776 ft 189 kts 332°
2026-04-25 04:54 33.84982 -118.07881 6559 ft 180 kts 332°
2026-04-25 04:54 33.86146 -118.08548 6081 ft 187 kts 332°
2026-04-25 04:54 33.87320 -118.09231 5736 ft 186 kts 332°
2026-04-25 04:54 33.88488 -118.09914 5393 ft 187 kts 332°
2026-04-25 04:55 33.89637 -118.10590 5146 ft 177 kts 332°
2026-04-25 04:55 33.90735 -118.11246 4724 ft 175 kts 332°
2026-04-25 04:55 33.91824 -118.11903 4281 ft 174 kts 331°
2026-04-25 04:55 33.92887 -118.12566 3837 ft 173 kts 327°
2026-04-25 04:56 33.93602 -118.13686 3378 ft 170 kts 291°
2026-04-25 04:56 33.94090 -118.14946 3131 ft 161 kts 295°
2026-04-25 04:56 33.94552 -118.16102 3013 ft 145 kts 293°
2026-04-25 04:56 33.94948 -118.17174 2948 ft 134 kts 292°
2026-04-25 04:57 33.95304 -118.18202 2897 ft 136 kts 285°
2026-04-25 04:57 33.95304 -118.19325 2878 ft 135 kts 259°
2026-04-25 04:57 33.95147 -118.20437 2752 ft 136 kts 258°
2026-04-25 04:57 33.94983 -118.21604 2328 ft 148 kts 258°
2026-04-25 04:58 33.94814 -118.22806 2083 ft 142 kts 258°
2026-04-25 04:58 33.94654 -118.23944 1928 ft 134 kts 259°
2026-04-25 04:58 33.94579 -118.25089 1883 ft 141 kts 267°
2026-04-25 04:58 33.94637 -118.26307 1966 ft 150 kts 271°
2026-04-25 04:59 33.94656 -118.27454 1828 ft 130 kts 266°
2026-04-25 04:59 33.94605 -118.28566 1676 ft 138 kts 263°
2026-04-25 04:59 33.94543 -118.29697 1579 ft 130 kts 265°
2026-04-25 04:59 33.94477 -118.30744 1232 ft 126 kts 261°
2026-04-25 05:00 33.94380 -118.31902 1177 ft 143 kts 261°
2026-04-25 05:00 33.94270 -118.33021 994 ft 131 kts 260°
2026-04-25 05:00 33.94162 -118.34120 816 ft 137 kts 260°
2026-04-25 05:00 33.94034 -118.35223 663 ft 126 kts 261°
2026-04-25 05:01 33.93930 -118.36275 490 ft 126 kts 261°
2026-04-25 05:01 33.93823 -118.37301 279 ft 122 kts 261°
2026-04-25 05:01 33.93725 -118.38349 190 ft 120 kts 261°
2026-04-25 05:01 33.93639 -118.39205 121 ft 81 kts 264°
2026-04-25 05:02 33.93603 -118.39636 124 ft 33 kts 270°
2026-04-25 05:02 33.93623 -118.39842 120 ft 21 kts 283°
2026-04-25 05:02 33.93658 -118.39994 122 ft 17 kts 277°
2026-04-25 05:02 33.93657 -118.40116 124 ft 13 kts 266°
2026-04-25 05:03 33.93652 -118.40228 121 ft 14 kts 266°
2026-04-25 05:03 33.93665 -118.40355 122 ft 16 kts 292°
2026-04-25 05:03 33.93734 -118.40422 121 ft 12 kts 347°
2026-04-25 05:03 33.93813 -118.40420 121 ft 12 kts 28°
2026-04-25 05:04 33.93842 -118.40358 123 ft 7 kts 86°
2026-04-25 05:04 33.93849 -118.40299 124 ft 5 kts 60°
2026-04-25 05:04 33.93863 -118.40287 122 ft 2 kts
2026-04-25 05:04 33.93990 -118.40304 122 ft 28 kts 353°
2026-04-25 05:05 33.94068 -118.40328 123 ft 1 kts 303°
2026-04-25 05:05 33.94071 -118.40339 122 ft 0 kts 273°
2026-04-25 05:05 33.94068 -118.40362 123 ft 6 kts 262°
2026-04-25 05:05 33.94068 -118.40367 123 ft 0 kts 264°